Regional Weather Roundup
Issued by NWS Upton, NY

Current Version | Previous Version | Graphics & Text | Print | Product List | Glossary Off
Versions: 1 2 3 4 5 6 7 8 9 10 11 12 13 14 15 16 17 18 19 20 21 22 23 24 25 26 27 28 29 30 31 32 33 34 35 36 37 38 39 40 41 42 43 44 45 46 47 48 49 50

000
ASUS41 KOKX 011505
RWROKX

REGIONAL WEATHER ROUNDUP
NATIONAL WEATHER SERVICE NEW YORK NY
1100 AM EDT MON SEP 01 2014

NOTE: "FAIR" INDICATES FEW OR NO CLOUDS BELOW 12,000 FEET WITH NO
SIGNIFICANT WEATHER AND/OR OBSTRUCTIONS TO VISIBILITY.

NYZ071-072-176-178-NJZ106-104-011600-
NEW YORK CITY METRO AREA


CITY           SKY/WX    TMP DP  RH WIND       PRES   REMARKS
CENTRAL PARK   SUNNY     81  69  67 W6        30.03S
LAGUARDIA APRT PTSUNNY   82  70  66 CALM      29.99S
KENNEDY INTL   PTSUNNY   79  72  79 S8        30.01S
NEWARK/LIBERTY PTSUNNY   84  71  65 S3        29.99F
BRNX BOT. GARD   N/A     82  68  61 W6        30.02S
TETERBORO      MOSUNNY   82  70  65 S6        29.98F
$$

NYZ177-179-078>081-011600-
LONG ISLAND NEW YORK

CITY           SKY/WX    TMP DP  RH WIND       PRES   REMARKS
FARMINGDALE    MOSUNNY   78  73  84 SW8       30.01S
ISLIP          PTSUNNY   80  71  74 VRB5      29.99S
SHIRLEY        MOSUNNY   81  72  74 S9        30.01S
WESTHAMPTON    MOSUNNY   82  72  71 VRB7      30.01F
MONTAUK POINT    N/A     79  72  79 S6        30.01F
$$

NYZ052-065-067-011600-
HUDSON VALLEY

CITY           SKY/WX    TMP DP  RH WIND       PRES   REMARKS
WHITE PLAINS   MOSUNNY   81  70  69 CALM      30.00F
NEWBURGH       MOSUNNY   79  72  78 CALM      30.01F
MONTGOMERY     SUNNY     81  71  71 CALM      29.99F
POUGHKEEPSIE   PTSUNNY   80  70  71 CALM      29.98F
ALBANY         MOSUNNY   80  68  66 VRB5      29.98F
$$

NJZ001-105-106-008-010-013-015-019>022-104-011600-
NEW JERSEY

CITY           SKY/WX    TMP DP  RH WIND       PRES   REMARKS
NEWARK/LIBERTY PTSUNNY   84  71  65 S3        29.99F
TETERBORO      MOSUNNY   82  70  65 S6        29.98F
CALDWELL       SUNNY     82  67  60 W6        30.00S
MORRISTOWN     PTSUNNY   82  72  69 SW8       30.00F
SOMERVILLE     PTSUNNY   83  72  69 S7        29.99S
LINDEN         FAIR      87  72  60 SW3       30.01F HX  94
SUSSEX         PTSUNNY   81  72  74 SW5       30.01S
ANDOVER          N/A     80  70  71 CALM      30.02S
TRENTON        CLOUDY    78  72  81 S5        30.01F
MILLVILLE      MOSUNNY   82  73  74 SW7       30.03S
ATLANTIC CITY  PTSUNNY   80  73  79 SW7       30.03S
WRIGHTSTOWN    CLOUDY    78  74  88 SW2       30.01R
TOMS RIVER     CLOUDY    81  73  78 NW3       30.02F
BELMAR         CLOUDY    75  70  83 W5        30.03S
$$

PAZ047>061-062-071-011600-
EASTERN PENNSYLVANIA

CITY           SKY/WX    TMP DP  RH WIND       PRES   REMARKS
PHILADELPHIA   PTSUNNY   80  73  79 SW8       30.03S
ALLENTOWN      CLOUDY    81  70  69 S5        30.02S
SCRANTON       CLOUDY    78  68  71 SW5       30.03S
$$

CTZ002-004>006-009-010-012-RIZ004-006-007-MAZ004-011-015-011600-
SOUTHERN NEW ENGLAND
 IN CT

CITY           SKY/WX    TMP DP  RH WIND       PRES   REMARKS
BRADLEY INTL   MOSUNNY   81  68  64 VRB3      29.98F
HARTFORD       SUNNY     79  70  74 CALM      29.98F
DANBURY        SUNNY     80  70  71 SW3       30.01F
WTRBRY/OXFORD  PTSUNNY   79  70  73 CALM      30.04S
BRIDGEPORT     MOSUNNY   80  73  79 SW10      29.99F
MERIDEN        MOSUNNY   79  69  71 CALM      29.99F
NEW HAVEN      MOSUNNY   80  73  79 S7        29.99S
CHESTER        FAIR      79  70  73 SW3       30.02S
GROTON         PTSUNNY   77  73  87 SW10      29.99S
WILLIMANTIC    SUNNY     80  70  71 CALM      30.00S

 IN RI

CITY           SKY/WX    TMP DP  RH WIND       PRES   REMARKS
PROVIDENCE     PTSUNNY   80  72  76 S9        29.99S
BLOCK ISLAND   CLOUDY    73  68  83 SW13      30.02S
WESTERLY       MOSUNNY   78  71  79 SW8       30.01S

 IN MA

CITY           SKY/WX    TMP DP  RH WIND       PRES   REMARKS
BOSTON         MOSUNNY   83  68  60 VRB5      29.97S
WORCESTER      SUNNY     77  66  68 VRB6      30.02S
WESTFIELD      PTSUNNY   79  70  74 SE5       29.98F
PROVINCETOWN   MOSUNNY   77  73  88 SW12      29.98F
NANTUCKET      CLOUDY    72  69  90 SW8       30.02R
$$

ANZ330-335-338-340-345-350-353-355-011600-
COASTAL MARINE OBSERVATIONS


STATION/POSITION TIME  SKY/WX   TEMP    WIND        PRES    VSBY  WAVE
                                AIR SEA DIR/SP/G                  HT/PER
                 (UTC)          (F)     (DEG/KT/KT) (MB)    (MI)  (FT/S)
NY HARB ENTRANCE NOT AVBL
4S FIRE IS       NOT AVBL
23SW MTP         1500                                 N/A           4/ 6
HUDSON CANYON    1500            74 73  230/ 10/ 10 1016.6          4/ 6
EXECUTION ROCKS  1500            82 75  210/  6/  8   N/A
WESTERN LI SOUND 1500            77     200/  4/  6   N/A           0
CENTRAL LI SOUND 1400            73 73  220/  6/  8   N/A           1
EASTERN LI SOUND 1400            74 71  210/  4/  6   N/A
ROBBINS REEF     1500            77     140/  8/  9   N/A
$$


>>>>>>>>>>>>>>>>>>>>>>>>>>>> KEY <<<<<<<<<<<<<<<<<<<<<<<<<<<
>                                                          <
>     SKY/WX - SKY CONDITION/PRESENT WEATHER               <
>     TMP    - TEMPERATURE IN FAHRENHEIT                   <
>     DP     - DEWPOINT IN FAHRENHEIT                      <
>     RH     - RELATIVE HUMIDITY IN PERCENT                <
>     WIND   - DIRECTION AND SPEED IN MPH                  <
>     PRES   - MEAN SEA LEVEL PRESSURE IN INCHES OF HG     <
>     WCI    - WIND CHILL INDEX                            <
>     VSB    - VISIBILITY IN MILES                         <
>     HX     - HEAT INDEX                                  <
>     TC     - TEMPERATURE IN CELSIUS                      <
>     VRB    - VARIABLE WIND DIRECTION                     <
>                                                          <
>>>>>>>>>>>>>>>>>>>>>>>>>>>> KEY <<<<<<<<<<<<<<<<<<<<<<<<<<<




USA.gov is the U.S. government's official web portal to all federal, state and local government web resources and services.